[[{"header":{"parameterUnit":"m.s-1","parameterCategory":1,"la1":30.2991,"la2":30.254,"lo1":-89.0895,"lo2":-89.0444,"dy":0.0017,"dx":0.0017,"nx":28,"ny":28,"refTime":"2024-02-12T03:00:00:Z","depth":0,"parameterNumber":2,"parameterNumberName":"U-component_of_WINDS"},"data":[0,0,0,0,0,0,0,0,0,0,0,0,0,0,0,0,0,0,0,0,0,0,0,0,0,0,0,0,0,0,0,0,0,0,0,0,0,0,0,0,0,0,0,0,0,0,0,0,0,0,0,0,0,0,0,0,0,0,1.1565,1.1565,0,1.1606,1.1607,1.1607,1.1601,1.1601,1.16,1.1599,1.1643,1.1645,1.1647,0,0,0,0,0,0,0,0,0,0,0,0,0,1.1483,1.1485,1.1565,1.1565,1.1566,1.1606,1.1607,1.1607,1.1602,1.1601,1.16,1.1599,1.1643,1.1645,1.1647,0,0,0,0,0,0,0,0,0,0,0,0,0,1.1521,1.1485,1.1565,1.1568,1.1568,1.1606,1.1607,1.1607,1.1602,1.1601,1.16,1.1599,1.1642,1.1645,1.1647,1.1685,0,0,1.1655,1.1657,0,0,0,0,0,0,0,0,1.1519,1.1524,1.1567,1.1568,1.1568,1.1598,1.1594,1.1633,1.1602,1.1589,1.1599,1.1598,1.1629,1.1633,1.1643,1.1687,1.1689,1.1656,1.1657,1.1659,1.1659,0,0,0,0,0,0,0,1.1516,1.1522,1.1581,1.1567,1.1569,1.1568,1.1572,1.1601,1.1614,1.159,1.159,1.1595,1.1629,1.164,1.1644,1.1689,1.1656,1.1658,1.166,1.1661,1.1768,1.1769,0,0,0,0,0,0,1.1513,1.152,1.158,1.1582,1.1541,1.157,1.1575,1.1589,1.1614,1.1617,1.1596,1.1594,1.1636,1.1641,1.1645,1.1692,1.1659,1.1661,1.1663,1.1767,1.1769,1.177,0,0,0,0,0,0,1.1511,1.1518,1.1578,1.1551,1.1559,1.1573,1.1589,1.1591,1.1602,1.1618,1.1621,1.1604,1.1635,1.1641,1.1675,1.1693,1.1662,1.1665,1.1766,1.1768,1.1769,1.1785,0,0,0,0,0,0,1.1509,1.1517,1.1531,1.1552,1.156,1.1607,1.159,1.1592,1.1606,1.1605,1.1627,1.163,1.1635,1.1671,1.1678,1.1697,1.1667,1.1764,1.1766,1.1769,1.1783,1.1787,1.1791,0,0,0,0,0,1.1506,1.1534,1.1532,1.1539,1.1578,1.1608,1.1613,1.1618,1.1608,1.1622,1.1633,1.1629,1.169,1.1675,1.1682,1.1702,1.1763,1.1766,1.1768,1.1781,1.1787,1.1791,0,0,0,0,0,0,1.1515,1.1537,1.1534,1.157,1.1587,1.1607,1.1625,1.1623,1.1644,1.1642,1.1648,1.1653,1.1688,1.1698,1.1681,1.1741,1.1725,1.173,1.1733,1.1738,1.1741,1.1738,1.1669,0,0,0,0,0,1.1521,1.1544,1.1561,1.1591,1.16,1.1611,1.1624,1.1627,1.1645,1.1653,1.1666,1.1684,1.1708,1.1723,1.1746,1.1785,1.179,1.1802,1.1806,1.1809,1.1813,1.1836,1.1842,1.1779,1.1779,1.1779,0,0,1.1534,1.1549,1.1562,1.1593,1.1607,1.1631,1.1617,1.1642,1.166,1.1657,1.169,1.17,1.1721,1.1758,1.1775,1.1768,1.1832,1.1813,1.1815,1.1817,1.184,1.1846,1.1851,1.1781,1.178,1.178,0,0,1.1571,1.1583,1.161,1.1624,1.1645,1.1653,1.1659,1.168,1.1686,1.172,1.1718,1.174,1.178,1.1795,1.1808,1.1852,1.185,1.186,1.188,1.1903,1.1908,1.1912,1.1929,1.1935,1.1863,1.1863,1.1863,0,1.1584,1.1619,1.1624,1.165,1.1664,1.1662,1.169,1.1704,1.1731,1.1741,1.1733,1.1784,1.1798,1.184,1.185,1.1861,1.1869,1.1857,1.1906,1.1911,1.1915,1.1931,1.1938,1.1864,1.1864,1.1864,1.1864,0,1.1636,1.166,1.168,1.1706,1.1723,1.175,1.1759,1.1776,1.1777,1.1786,1.1821,1.1838,1.1865,1.1875,1.1876,1.1917,1.1912,1.1905,1.189,1.1922,1.1938,1.1944,1.1866,1.1866,1.1865,1.1865,0,0,1.1678,1.1708,1.1715,1.1728,1.1752,1.1771,1.1799,1.1825,1.1839,1.1858,1.1882,1.1917,1.1911,1.1926,1.193,1.195,1.1985,1.194,1.1941,1.1949,1.2032,1.2038,1.2045,1.1983,1.1985,1.1986,1.2031,0,1.1718,1.1766,1.1771,1.1814,1.1838,1.1837,1.1861,1.1879,1.1888,1.1911,1.1921,1.1946,1.1936,1.1945,1.1964,1.1977,1.2002,1.1973,1.2007,1.2008,1.2002,1.2053,1.2059,1.21,1.2037,1.2038,1.2039,0,1.1769,1.1791,1.1836,1.1858,1.1868,1.1889,1.1914,1.1935,1.1956,1.1962,1.1979,1.1981,1.2011,1.1994,1.2036,1.2016,1.2031,1.2039,1.2041,1.2045,1.2026,1.2059,1.2114,1.212,1.2048,1.2047,1.2047,0,1.1797,1.1837,1.187,1.1881,1.1906,1.1922,1.1934,1.1953,1.1969,1.1991,1.2002,1.2027,1.2041,1.2062,1.2071,1.2057,1.2113,1.2096,1.2119,1.2119,1.2131,1.213,1.219,1.2139,1.2139,1.2139,1.2139,0,1.1841,1.1869,1.1883,1.1903,1.1935,1.1942,1.1974,1.1985,1.2003,1.2026,1.2027,1.2049,1.2059,1.2083,1.209,1.2125,1.2131,1.2137,1.2139,1.2137,1.2137,1.2147,1.2145,1.214,1.214,1.214,1.2139,0,1.1877,1.1888,1.1923,1.1945,1.1952,1.1974,1.1994,1.2014,1.2024,1.2053,1.206,1.2076,1.2104,1.2115,1.215,1.2155,1.2195,1.2194,1.2188,1.2188,1.2211,1.2209,1.228,1.229,1.2232,1.2232,1.2233,0,1.1905,1.1926,1.1951,1.1966,1.1979,1.2003,1.202,1.2028,1.2045,1.2071,1.2089,1.2117,1.214,1.2186,1.2201,1.2227,1.2228,1.2251,1.2232,1.223,1.2229,1.2228,1.2231,1.2254,1.2255,1.2255,1.2256,0,1.1952,1.1957,1.198,1.2005,1.2025,1.2045,1.2065,1.2078,1.209,1.2109,1.2138,1.2156,1.2192,1.2221,1.2249,1.2262,1.2261,1.2262,1.2269,1.2268,1.2264,1.2267,1.2198,1.226,1.226,1.2259,1.2259,1.2259,1.1986,1.2006,1.2027,1.2053,1.2069,1.2088,1.2108,1.2121,1.2145,1.2175,1.2178,1.221,1.2232,1.2269,1.2284,1.2309,1.2303,1.2313,1.2315,1.2318,1.232,1.2259,1.2314,1.2314,1.2314,1.2314,1.2314,0,1.2035,1.2048,1.2072,1.2101,1.2122,1.2119,1.2142,1.216,1.2187,1.2207,1.223,1.2265,1.2293,1.231,1.2339,1.2356,1.2357,1.2363,1.2362,1.2366,1.2323,1.2315,1.2362,1.2362,1.2362,1.2362,1.2362,1.2362,1.2063,1.2097,1.2104,1.2146,1.216,1.219,1.2204,1.2222,1.2238,1.2276,1.2299,1.231,1.233,1.2361,1.2387,1.2391,1.2402,1.241,1.2414,1.2374,1.2369,1.2364,1.2356,1.2412,1.2412,1.2454,1.2455,1.2455]},{"header":{"parameterUnit":"m.s-1","parameterCategory":1,"la1":30.2991,"la2":30.254,"lo1":-89.0895,"lo2":-89.0444,"dy":0.0017,"dx":0.0017,"nx":28,"ny":28,"refTime":"2024-02-12T03:00:00:Z","depth":0,"parameterNumber":3,"parameterNumberName":"V-component_of_WINDS"},"data":[0,0,0,0,0,0,0,0,0,0,0,0,0,0,0,0,0,0,0,0,0,0,0,0,0,0,0,0,0,0,0,0,0,0,0,0,0,0,0,0,0,0,0,0,0,0,0,0,0,0,0,0,0,0,0,0,0,0,-3.8193,-3.8193,0,-3.8264,-3.8264,-3.8265,-3.8287,-3.8286,-3.8286,-3.8286,-3.8353,-3.8355,-3.8357,0,0,0,0,0,0,0,0,0,0,0,0,0,-3.8073,-3.8075,-3.8193,-3.8193,-3.8194,-3.8263,-3.8264,-3.8265,-3.8287,-3.8286,-3.8286,-3.8286,-3.8352,-3.8355,-3.8357,0,0,0,0,0,0,0,0,0,0,0,0,0,-3.8132,-3.8075,-3.8192,-3.8213,-3.8216,-3.8263,-3.8264,-3.8266,-3.8287,-3.8286,-3.8286,-3.8285,-3.8351,-3.8355,-3.8358,-3.8387,0,0,-3.8367,-3.8369,0,0,0,0,0,0,0,0,-3.8129,-3.8136,-3.8209,-3.8212,-3.8215,-3.8266,-3.8247,-3.8306,-3.8287,-3.826,-3.8286,-3.8285,-3.8324,-3.8329,-3.8344,-3.839,-3.8393,-3.8368,-3.8369,-3.8371,-3.8372,0,0,0,0,0,0,0,-3.8125,-3.8134,-3.822,-3.821,-3.8214,-3.8218,-3.8226,-3.8258,-3.8294,-3.8262,-3.8264,-3.8272,-3.8325,-3.8341,-3.8345,-3.8394,-3.8367,-3.837,-3.8372,-3.8373,-3.8472,-3.8473,0,0,0,0,0,0,-3.8117,-3.813,-3.8218,-3.8223,-3.817,-3.8221,-3.823,-3.825,-3.8293,-3.83,-3.8273,-3.8273,-3.8335,-3.8342,-3.8348,-3.8388,-3.8371,-3.8374,-3.8376,-3.8471,-3.8472,-3.8473,0,0,0,0,0,0,-3.8115,-3.8125,-3.8215,-3.8177,-3.8189,-3.8224,-3.8246,-3.8252,-3.8267,-3.8302,-3.8308,-3.8282,-3.8335,-3.8343,-3.8378,-3.839,-3.8375,-3.8378,-3.847,-3.8472,-3.8473,-3.8466,0,0,0,0,0,0,-3.8111,-3.8124,-3.8136,-3.8177,-3.8191,-3.8246,-3.8247,-3.8253,-3.8273,-3.8274,-3.8312,-3.8317,-3.8336,-3.8374,-3.8382,-3.8394,-3.8381,-3.847,-3.8471,-3.8472,-3.8465,-3.8466,-3.8468,0,0,0,0,0,-3.8107,-3.8129,-3.8137,-3.8147,-3.8207,-3.8246,-3.8254,-3.8276,-3.8274,-3.8286,-3.8309,-3.8316,-3.8388,-3.8377,-3.8386,-3.84,-3.8469,-3.8471,-3.8472,-3.8464,-3.8466,-3.8468,0,0,0,0,0,0,-3.8086,-3.8135,-3.8143,-3.818,-3.8209,-3.825,-3.8266,-3.8276,-3.8305,-3.8305,-3.8329,-3.8337,-3.8371,-3.8389,-3.8376,-3.8432,-3.8428,-3.8432,-3.842,-3.8421,-3.8423,-3.8418,-3.8383,0,0,0,0,0,-3.8086,-3.8115,-3.8156,-3.8184,-3.8199,-3.823,-3.8248,-3.8263,-3.8293,-3.8305,-3.833,-3.8357,-3.8387,-3.8405,-3.8433,-3.8468,-3.8477,-3.8482,-3.8483,-3.8484,-3.8487,-3.8509,-3.8512,-3.8478,-3.8478,-3.8478,0,0,-3.8085,-3.8116,-3.8132,-3.8181,-3.8205,-3.8235,-3.824,-3.827,-3.8292,-3.8308,-3.8344,-3.8364,-3.8397,-3.8432,-3.8449,-3.8448,-3.8499,-3.8486,-3.8487,-3.8489,-3.8511,-3.8514,-3.8517,-3.8479,-3.8479,-3.8479,0,0,-3.81,-3.8126,-3.8154,-3.8179,-3.8217,-3.8238,-3.8245,-3.8285,-3.8299,-3.8336,-3.835,-3.8376,-3.8425,-3.8449,-3.8467,-3.8495,-3.8503,-3.8503,-3.8509,-3.8531,-3.8533,-3.8536,-3.8547,-3.8551,-3.8505,-3.8505,-3.8505,0,-3.8094,-3.814,-3.8166,-3.8197,-3.8218,-3.8238,-3.8267,-3.8289,-3.8333,-3.8348,-3.8346,-3.8411,-3.8434,-3.8477,-3.8484,-3.8497,-3.8506,-3.8498,-3.8531,-3.8534,-3.8537,-3.8548,-3.8552,-3.8505,-3.8505,-3.8505,-3.8505,0,-3.8132,-3.8164,-3.8182,-3.8228,-3.8251,-3.828,-3.831,-3.8331,-3.8344,-3.8366,-3.8404,-3.8433,-3.8469,-3.848,-3.8492,-3.8525,-3.8524,-3.8527,-3.8523,-3.8539,-3.855,-3.8555,-3.8505,-3.8505,-3.8505,-3.8505,0,0,-3.8132,-3.8196,-3.8202,-3.8224,-3.8269,-3.8294,-3.8324,-3.8362,-3.838,-3.8411,-3.8437,-3.848,-3.8484,-3.8505,-3.852,-3.8539,-3.8561,-3.854,-3.8541,-3.8544,-3.8602,-3.86,-3.8605,-3.8568,-3.8568,-3.8569,-3.86,0,-3.8154,-3.8212,-3.8238,-3.8283,-3.8314,-3.8335,-3.8362,-3.8392,-3.8414,-3.8442,-3.8465,-3.8496,-3.8498,-3.8511,-3.853,-3.8554,-3.8573,-3.8553,-3.8592,-3.8593,-3.8584,-3.861,-3.8608,-3.8635,-3.8604,-3.8604,-3.8605,0,-3.8185,-3.822,-3.827,-3.8314,-3.8328,-3.8352,-3.8391,-3.8418,-3.8453,-3.8467,-3.8493,-3.8508,-3.8541,-3.8536,-3.8583,-3.8568,-3.8586,-3.86,-3.8602,-3.8607,-3.86,-3.8616,-3.8644,-3.8648,-3.8612,-3.8611,-3.8611,0,-3.8183,-3.8241,-3.828,-3.8298,-3.835,-3.8367,-3.8389,-3.8424,-3.8447,-3.848,-3.8495,-3.853,-3.8549,-3.8576,-3.8601,-3.8595,-3.8646,-3.8642,-3.8658,-3.8658,-3.8668,-3.8667,-3.87,-3.8678,-3.8678,-3.8678,-3.8678,0,-3.8204,-3.8234,-3.828,-3.8303,-3.8338,-3.8368,-3.8401,-3.8424,-3.8456,-3.8484,-3.8504,-3.8529,-3.856,-3.859,-3.8609,-3.8646,-3.8654,-3.8666,-3.8671,-3.8665,-3.8664,-3.8677,-3.8676,-3.8679,-3.8679,-3.8679,-3.8679,0,-3.8206,-3.8238,-3.8282,-3.833,-3.8342,-3.8366,-3.8406,-3.843,-3.8454,-3.8489,-3.8499,-3.8536,-3.8572,-3.86,-3.8646,-3.8659,-3.8698,-3.8703,-3.8687,-3.869,-3.8705,-3.8704,-3.8748,-3.8756,-3.8728,-3.8729,-3.8729,0,-3.8217,-3.8242,-3.8294,-3.8315,-3.8339,-3.8372,-3.8397,-3.8427,-3.8451,-3.8496,-3.8514,-3.8552,-3.8585,-3.8642,-3.8672,-3.8708,-3.8714,-3.8727,-3.8719,-3.8713,-3.8716,-3.8714,-3.8717,-3.8728,-3.8728,-3.8728,-3.8728,0,-3.8235,-3.8251,-3.8285,-3.8327,-3.8356,-3.8389,-3.8423,-3.8439,-3.8476,-3.8502,-3.8541,-3.8566,-3.8616,-3.8654,-3.8694,-3.8716,-3.8728,-3.8731,-3.8737,-3.8731,-3.8721,-3.8728,-3.8691,-3.8729,-3.8729,-3.8729,-3.8729,-3.8729,-3.8243,-3.8267,-3.8308,-3.8347,-3.8377,-3.8408,-3.8434,-3.8463,-3.8497,-3.8541,-3.8557,-3.8598,-3.8635,-3.869,-3.8713,-3.8745,-3.8745,-3.8753,-3.8755,-3.8757,-3.8757,-3.8717,-3.8752,-3.8752,-3.8752,-3.8752,-3.8752,0,-3.8262,-3.8291,-3.8327,-3.8376,-3.8407,-3.8419,-3.8458,-3.8482,-3.8519,-3.8553,-3.8586,-3.8632,-3.8671,-3.8705,-3.8744,-3.8763,-3.877,-3.8773,-3.8772,-3.8777,-3.8754,-3.8746,-3.8767,-3.8767,-3.8767,-3.8767,-3.8767,-3.8767,-3.8276,-3.8318,-3.8339,-3.8396,-3.8424,-3.8467,-3.8488,-3.8518,-3.8546,-3.8598,-3.8631,-3.8654,-3.8689,-3.8732,-3.8768,-3.8777,-3.8791,-3.8792,-3.8802,-3.878,-3.8778,-3.8776,-3.8769,-3.8795,-3.8795,-3.8823,-3.8823,-3.8824]}]]